MIDORI II (ADEOS-II)

Last updated on Fri Jul 10 2026 00:02:13 GMT+0000 (Coordinated Universal Time)

1 27597U 02056A 26189.90847185 .00000155 00000+0 78853-4 0 9996 2 27597 98.7890 149.3543 0001731 48.4654 311.6675 14.29360979227612
UTC large
Height (km)
Speed (km/s)
/
Latitude / Longitude
Inclination (degrees)
Orbital Period (minutes)
Azimuth
Elevation
Range (km)
Doppler Factor

Next 0 passes for location: London (51.5072 / 0.1276)

No passes found over London.
MIDORI II (ADEOS-II)